User: anonymous   Login
Location: Fosso Corella
(43.9167°N, 11.5667°E)
Time: 17:49:20
(UTC+00:00)
Language:

Cosmos 2322 Rocket - Orbit

View from above orbital plane
View from above orbital plane
View from above satellite
View from above satellite

Ground track
Ground track

The orbit data is extracted from the following two-line orbital elements,

1 23705U 95058B   20228.11521619  .00000270  00000-0  16334-3 0  9993
2 23705  71.0226 125.8752 0013449 329.4376  30.5962 14.15135776280579
Epoch (UTC): 15 August 2020 02:45:54
Eccentricity: 0.0013449
inclination: 71.0226°
perigee height: 832 km
apogee height: 851 km
right ascension of ascending node: 125.8752°
argument of perigee: 329.4376°
revolutions per day: 14.15135776
mean anomaly at epoch: 30.5962°
orbit number at epoch: 28057

The dashed part of the orbit path shows where the satellite is in the earth's shadow,  

DLR